Location: Ariel
(45.9570°N, 122.5700°W)
Time: 15:07:10
(UTC-07:00)

Transit 4A - Pass Details

Date: 23 July 2019
Orbit: 863 x 981 km, 66.8° (Epoch: 21 August)

Event Time Altitude Azimuth Distance (km) Brightness Sun altitude
Rises 12:04:01 0° 319° (NW) 3,662 10.7 60.1°
Reaches altitude 10° 12:06:55 10° 309° (NW) 2,696 10.2 60.3°
Maximum altitude 12:12:09 29° 252° (WSW) 1,672 9.6 60.9°
Drops below altitude 10° 12:17:15 10° 195° (SSW) 2,615 10.7 61.3°
Sets 12:20:02 0° 184° (S) 3,532 11.3 61.5°
